K7WBM Weather Reports


Display with metric or nautical units.
time (UTC)temp
F
wind
direction
speed
MPH
gust
MPH
rain 1hr
in
rain 24hr
in
rain mn
in
humidity
%
barometer
mb
20260507033043 61 0 0.0 0.0 0.00 0.05 0.00 50 1017.0
20260507031539 63 0 0.0 0.0 0.00 0.05 0.00 46 1016.9
20260507030236 66 0 0.0 0.0 0.00 0.05 0.00 44 1016.8
20260507024540 68 0 0.0 0.0 0.00 0.05 0.00 40 1016.6
20260507023343 71 0 0.0 0.0 0.00 0.05 0.00 37 1016.6
20260507021537 74 0 0.0 0.0 0.00 0.05 0.00 35 1016.4
20260507020037 76 0 0.0 1.0 0.00 0.05 0.00 35 1016.5
20260507014547 77 0 0.0 1.0 0.00 0.05 0.00 31 1016.5
20260507013037 78 0 0.0 0.0 0.00 0.05 0.00 31 1016.5
20260507011540 78 0 0.0 4.0 0.00 0.05 0.00 30 1016.5
20260507010038 78 0 0.0 1.0 0.00 0.05 0.00 32 1016.4
20260507004539 79 0 0.0 3.0 0.00 0.05 0.00 34 1016.5
20260507003034 80 0 0.0 2.0 0.00 0.05 0.00 30 1016.6
20260507001655 80 0 0.0 1.0 0.00 0.05 0.00 33 1016.6
20260506234629 77 0 0.0 5.0 0.00 0.05 0.00 32 1016.7
20260506234555 77 0 0.0 5.0 0.00 0.05 0.00 32 1016.7
20260506233037 77 164 2.0 5.0 0.00 0.05 0.00 35 1016.9
20260506231536 78 0 0.0 5.0 0.00 0.05 0.00 32 1016.8
20260506230037 77 0 1.0 4.0 0.00 0.05 0.00 36 1016.9
20260506224539 77 125 0.0 3.0 0.00 0.05 0.00 39 1017.2
20260506223037 77 0 1.0 4.0 0.00 0.05 0.00 42 1017.3
20260506221538 77 153 1.0 4.0 0.00 0.05 0.00 35 1017.6
20260506220040 76 0 0.0 9.0 0.00 0.05 0.00 36 1017.8
20260506214548 76 0 2.0 6.0 0.00 0.05 0.00 37 1018.1
20260506213035 75 94 1.0 7.0 0.00 0.05 0.00 41 1018.1
20260506211539 75 133 0.0 6.0 0.00 0.05 0.00 39 1018.2
20260506210037 75 102 1.0 6.0 0.00 0.05 0.00 38 1018.4
20260506204543 74 90 1.0 6.0 0.00 0.05 0.00 39 1018.6
20260506203039 74 122 0.0 4.0 0.00 0.05 0.00 44 1018.7
20260506201537 73 0 0.0 4.0 0.00 0.05 0.00 39 1019.1
20260506200036 73 65 2.0 6.0 0.00 0.05 0.00 41 1019.1
20260506194535 73 0 0.0 4.0 0.00 0.05 0.00 43 1019.1
20260506193039 72 248 2.0 5.0 0.00 0.05 0.00 40 1019.1
20260506191538 73 82 0.0 2.0 0.00 0.05 0.00 44 1019.2
20260506190037 71 0 0.0 4.0 0.00 0.05 0.00 45 1019.3
20260506184537 70 106 2.0 5.0 0.00 0.05 0.00 48 1019.3
20260506183039 69 75 1.0 5.0 0.00 0.05 0.00 47 1019.4
20260506181539 69 71 2.0 4.0 0.00 0.05 0.00 51 1019.4
20260506180046 68 84 2.0 5.0 0.00 0.05 0.00 51 1019.5
20260506174537 67 131 2.0 5.0 0.00 0.05 0.00 52 1019.4
20260506173041 67 0 1.0 3.0 0.00 0.05 0.00 56 1019.4
20260506171536 67 0 1.0 5.0 0.00 0.05 0.00 57 1019.3
20260506170035 66 75 0.0 3.0 0.00 0.05 0.00 59 1019.2
20260506164701 65 0 0.0 4.0 0.00 0.05 0.00 61 1019.1
20260506163039 64 0 0.0 3.0 0.00 0.05 0.00 59 1019.1
20260506161537 62 18 1.0 4.0 0.00 0.05 0.00 63 1019.1
20260506160038 61 0 0.0 1.0 0.00 0.05 0.00 70 1019.0
20260506154537 59 353 0.0 3.0 0.00 0.05 0.00 70 1018.9
20260506153038 57 338 1.0 3.0 0.00 0.05 0.00 73 1018.8
20260506151538 56 0 0.0 3.0 0.00 0.05 0.00 77 1018.8
20260506150038 54 0 0.0 2.0 0.00 0.05 0.00 82 1018.7
20260506144551 52 346 0.0 3.0 0.00 0.05 0.00 86 1018.5
20260506143037 49 0 0.0 3.0 0.00 0.05 0.00 89 1018.2
20260506141536 47 0 0.0 1.0 0.00 0.05 0.00 92 1017.9
20260506140034 45 0 0.0 1.0 0.00 0.05 0.00 93 1017.6
20260506134537 44 0 0.0 0.0 0.00 0.06 0.00 93 1017.3
20260506133042 43 0 0.0 0.0 0.00 0.06 0.00 93 1017.1
20260506131536 43 0 0.0 0.0 0.00 0.06 0.00 92 1017.0
20260506130038 43 0 0.0 0.0 0.00 0.06 0.00 92 1016.8
20260506124538 44 0 0.0 0.0 0.00 0.13 0.00 92 1016.6
20260506123036 44 0 0.0 0.0 0.00 0.13 0.00 93 1016.1
20260506121538 44 0 0.0 0.0 0.00 0.13 0.00 93 1016.0
20260506120038 44 0 0.0 1.0 0.00 0.13 0.00 92 1015.9
20260506114535 44 0 0.0 0.0 0.00 0.13 0.00 91 1015.8
20260506113038 44 0 0.0 0.0 0.00 0.13 0.00 90 1015.5
20260506111537 45 0 0.0 0.0 0.00 0.13 0.00 90 1015.4
20260506110039 44 0 0.0 0.0 0.00 0.13 0.00 90 1015.1
20260506104537 45 0 0.0 0.0 0.00 0.13 0.00 90 1014.9
20260506103038 45 0 0.0 0.0 0.00 0.13 0.00 89 1014.9
20260506101537 45 0 0.0 0.0 0.00 0.13 0.00 90 1014.6
20260506100038 46 0 0.0 0.0 0.00 0.13 0.00 89 1014.6
20260506094538 46 0 0.0 0.0 0.00 0.18 0.00 90 1014.6
20260506093041 46 0 0.0 0.0 0.00 0.18 0.00 88 1014.4
20260506091537 46 0 0.0 0.0 0.00 0.18 0.00 89 1014.2
20260506090039 46 0 0.0 0.0 0.00 0.18 0.00 87 1014.2
20260506084538 47 0 0.0 0.0 0.00 0.23 0.00 87 1014.2
20260506083042 47 0 0.0 0.0 0.00 0.23 0.00 85 1014.1
20260506081537 49 0 0.0 2.0 0.00 0.23 0.00 86 1014.1
20260506073038 49 0 0.0 3.0 0.00 0.28 0.00 86 1013.9
20260506071535 49 0 0.0 2.0 0.00 0.28 0.00 87 1013.7
20260506061538 49 0 0.0 0.0 0.00 0.28 0.28 86 1013.1
20260506044546 51 0 0.0 2.0 0.02 0.28 0.28 78 1012.2
20260506043040 52 0 0.0 2.0 0.05 0.28 0.28 74 1012.1
20260506041548 53 151 1.0 6.0 0.05 0.28 0.28 73 1011.8
20260506040040 55 269 0.0 8.0 0.05 0.28 0.28 69 1011.8
20260506034539 62 111 6.0 12.0 0.02 0.25 0.25 58 1013.2